GW2129 Weather Reports


time (UTC)temp
C
wind
direction
speed
KPH
gust
KPH
rain 1hr
cm
rain 24hr
cm
rain mn
cm
humidity
%
barometer
mb
20260506124938 23 102 1.6 4.8 0.00 0.00 0.00 94 1009.7
20260506124436 23 134 3.2 6.4 0.00 0.00 0.00 94 1009.5
20260506123934 23 133 3.2 4.8 0.00 0.00 0.00 94 1009.7
20260506123431 23 118 1.6 4.8 0.00 0.00 0.00 94 1009.6
20260506122928 23 97 0.0 3.2 0.00 0.00 0.00 94 1009.5
20260506122425 23 112 0.0 3.2 0.00 0.00 0.00 94 1009.5
20260506121924 23 57 0.0 3.2 0.00 0.00 0.00 94 1009.2
20260506121420 23 202 0.0 3.2 0.00 0.00 0.00 94 1009.4
20260506120917 23 113 3.2 3.2 0.00 0.00 0.00 93 1009.3
20260506120415 23 148 3.2 3.2 0.00 0.00 0.00 93 1009.4
20260506115912 23 126 1.6 3.2 0.00 0.00 0.00 93 1009.3
20260506115410 23 82 1.6 4.8 0.00 0.00 0.00 93 1009.3
20260506114908 23 173 1.6 4.8 0.00 0.00 0.00 93 1009.4
20260506114405 23 96 1.6 6.4 0.00 0.00 0.00 93 1009.2
20260506113904 23 125 4.8 4.8 0.00 0.00 0.00 93 1009.5
20260506113401 23 304 0.0 3.2 0.00 0.00 0.00 93 1009.2
20260506112857 23 106 3.2 3.2 0.00 0.00 0.00 93 1009.0
20260506112355 23 343 0.0 3.2 0.00 0.00 0.00 93 1009.1
20260506111852 23 48 0.0 3.2 0.00 0.00 0.00 93 1009.0
20260506111350 23 242 0.0 3.2 0.00 0.00 0.00 93 1009.0
20260506110847 23 341 1.6 3.2 0.00 0.00 0.00 93 1009.1
20260506110344 23 222 3.2 4.8 0.00 0.00 0.00 93 1008.9
20260506105841 23 239 1.6 4.8 0.00 0.00 0.00 93 1008.9
20260506105338 23 235 1.6 4.8 0.00 0.00 0.00 93 1008.7
20260506104835 23 263 3.2 4.8 0.00 0.00 0.00 93 1009.1
20260506104333 23 303 3.2 3.2 0.00 0.00 0.00 93 1009.0
20260506103830 23 274 0.0 3.2 0.00 0.00 0.00 92 1009.0
20260506103328 23 273 0.0 3.2 0.00 0.00 0.00 92 1008.9
20260506102825 23 13 0.0 4.8 0.00 0.00 0.00 92 1008.9
20260506102323 23 298 0.0 4.8 0.00 0.00 0.00 92 1008.9
20260506101820 23 66 0.0 4.8 0.00 0.00 0.00 92 1009.1
20260506101315 23 4 3.2 3.2 0.00 0.00 0.00 92 1009.0
20260506100814 23 321 0.0 4.8 0.00 0.00 0.00 92 1009.0
20260506100312 23 209 3.2 6.4 0.00 0.00 0.00 92 1008.9
20260506095810 23 273 0.0 4.8 0.00 0.00 0.00 92 1008.8
20260506095307 23 245 0.0 4.8 0.00 0.00 0.00 92 1008.7
20260506094803 23 243 3.2 3.2 0.00 0.00 0.00 92 1008.7
20260506094302 23 239 3.2 4.8 0.00 0.00 0.00 92 1008.9
20260506093800 23 256 1.6 4.8 0.00 0.00 0.00 91 1008.7
20260506093256 23 228 3.2 4.8 0.00 0.00 0.00 91 1008.5
20260506092755 23 249 4.8 6.4 0.00 0.00 0.00 91 1008.4
20260506092252 23 359 3.2 4.8 0.00 0.00 0.00 91 1008.4
20260506091749 23 124 3.2 6.4 0.00 0.00 0.00 91 1008.3
20260506091247 23 50 0.0 4.8 0.00 0.00 0.00 91 1008.7
20260506090744 23 177 4.8 9.7 0.00 0.00 0.00 91 1008.6
20260506090241 23 254 1.6 4.8 0.00 0.00 0.00 90 1008.6
20260506085738 23 323 1.6 9.7 0.00 0.00 0.00 90 1008.8
20260506085234 23 312 3.2 4.8 0.00 0.00 0.00 90 1008.8
20260506084731 23 234 0.0 6.4 0.00 0.00 0.00 90 1008.6
20260506084227 23 212 3.2 8.0 0.00 0.00 0.00 90 1008.4
20260506083724 24 260 0.0 6.4 0.00 0.00 0.00 90 1008.7
20260506083222 24 189 4.8 8.0 0.00 0.00 0.00 90 1008.5
20260506082719 24 261 3.2 4.8 0.00 0.00 0.00 90 1008.3
20260506082215 24 266 0.0 4.8 0.00 0.00 0.00 90 1008.7
20260506081713 24 271 0.0 4.8 0.00 0.00 0.00 90 1009.0
20260506081210 24 260 3.2 6.4 0.00 0.00 0.00 90 1008.7
20260506080708 24 224 0.0 8.0 0.00 0.00 0.00 90 1008.7
20260506080204 24 300 4.8 4.8 0.00 0.00 0.00 90 1008.7
20260506073148 24 152 3.2 6.4 0.00 0.00 0.00 91 1008.8
20260506072644 24 281 0.0 4.8 0.00 0.00 0.00 91 1008.9
20260506072143 24 313 3.2 4.8 0.00 0.00 0.00 91 1008.8
20260506071640 24 291 3.2 4.8 0.00 0.00 0.00 91 1009.2
20260506071137 24 230 0.0 4.8 0.00 0.00 0.00 91 1009.2
20260506070634 23 172 4.8 6.4 0.00 0.00 0.00 91 1008.8
20260506070131 23 340 3.2 6.4 0.00 0.00 0.00 91 1009.1
20260506062109 23 264 3.2 8.0 0.00 0.00 0.00 91 1009.1
20260506061604 24 287 0.0 4.8 0.00 0.00 0.00 91 1009.3
20260506061102 24 194 1.6 6.4 0.00 0.00 0.00 91 1009.4
20260506060601 24 245 1.6 4.8 0.00 0.00 0.00 90 1009.5
20260506051029 24 236 3.2 8.0 0.00 0.00 0.00 89 1009.4
20260506050527 25 234 4.8 9.7 0.00 0.00 0.00 88 1009.1
20260506045017 25 230 3.2 4.8 0.00 0.00 0.00 88 1009.4
20260506044516 25 326 1.6 4.8 0.00 0.00 0.00 88 1009.2
20260506044012 25 133 3.2 6.4 0.00 0.00 0.00 88 1009.2
20260506043509 25 110 3.2 6.4 0.00 0.00 0.00 87 1009.4
20260506043007 25 100 1.6 3.2 0.00 0.00 0.00 87 1009.1
20260506042501 25 203 4.8 8.0 0.00 0.00 0.00 87 1009.3
20260506041958 25 246 1.6 9.7 0.00 0.00 0.00 87 1009.2
20260506041456 25 133 4.8 4.8 0.00 0.00 0.00 87 1009.0
20260506040953 25 272 0.0 8.0 0.00 0.00 0.00 87 1009.1
20260506040451 25 206 0.0 3.2 0.00 0.00 0.00 87 1009.0
20260506035946 25 251 1.6 9.7 0.00 0.00 0.00 87 1009.3
20260506035443 25 346 3.2 8.0 0.00 0.00 0.00 86 1009.1
20260506034940 25 244 3.2 8.0 0.00 0.00 0.00 87 1009.1
20260506034438 25 217 1.6 4.8 0.00 0.00 0.00 86 1008.8
20260506033935 25 135 4.8 8.0 0.00 0.00 0.00 86 1008.7
20260506033432 25 255 0.0 4.8 0.00 0.00 0.00 86 1008.6
20260506032928 25 122 3.2 8.0 0.00 0.00 0.00 86 1008.4
20260506032426 25 237 1.6 6.4 0.00 0.00 0.00 85 1008.4
20260506031922 25 328 0.0 8.0 0.00 0.00 0.00 85 1008.3
20260506031420 25 189 4.8 9.7 0.00 0.00 0.00 85 1008.2
20260506030917 25 146 4.8 9.7 0.00 0.00 0.00 84 1008.0
20260506030415 26 106 3.2 6.4 0.00 0.00 0.00 84 1008.0
20260506025912 26 255 3.2 6.4 0.00 0.00 0.00 83 1008.1
20260506025409 26 307 3.2 16.1 0.00 0.00 0.00 83 1008.0
20260506024905 26 211 1.6 9.7 0.00 0.00 0.00 83 1007.9
20260506024402 26 76 1.6 8.0 0.00 0.00 0.00 83 1007.6
20260506023858 26 240 0.0 11.3 0.00 0.00 0.00 83 1008.0
20260506023355 26 85 0.0 8.0 0.00 0.00 0.00 82 1007.8
20260506022852 26 166 4.8 6.4 0.00 0.00 0.00 82 1007.7
20260506022349 26 215 4.8 4.8 0.00 0.00 0.00 83 1007.9
20260506021847 26 145 1.6 8.0 0.00 0.00 0.00 83 1007.7
20260506021344 26 145 0.0 4.8 0.00 0.00 0.00 83 1007.8
20260506020841 26 158 4.8 4.8 0.00 0.00 0.00 83 1007.4
20260506020339 26 151 3.2 6.4 0.00 0.00 0.00 83 1007.4
20260506015836 26 88 3.2 6.4 0.00 0.00 0.00 82 1007.4
20260506015333 26 120 1.6 6.4 0.00 0.00 0.00 81 1007.2
20260506014830 26 115 1.6 4.8 0.00 0.00 0.00 80 1007.3
20260506014327 27 182 0.0 8.0 0.00 0.00 0.00 79 1007.0
20260506013823 27 107 6.4 6.4 0.00 0.00 0.00 78 1007.1
20260506013321 27 119 6.4 6.4 0.00 0.00 0.00 77 1007.1
20260506012817 27 118 1.6 3.2 0.00 0.00 0.00 76 1007.2
20260506012314 27 78 1.6 4.8 0.00 0.00 0.00 76 1006.9
20260506011812 27 128 1.6 1.6 0.00 0.00 0.00 76 1006.7
20260506011308 27 227 0.0 3.2 0.00 0.00 0.00 76 1007.0
20260506010806 27 183 0.0 1.6 0.00 0.00 0.00 75 1006.9
20260506010304 28 180 0.0 4.8 0.00 0.00 0.00 75 1006.9
20260506005800 28 258 0.0 1.6 0.00 0.00 0.00 75 1006.8
20260506005257 28 242 0.0 1.6 0.00 0.00 0.00 74 1006.8
20260506004753 28 156 3.2 3.2 0.00 0.00 0.00 74 1006.7
20260506004251 28 205 1.6 4.8 0.00 0.00 0.00 73 1006.6
20260506003747 28 121 3.2 6.4 0.00 0.00 0.00 72 1006.6
20260506003243 28 234 1.6 3.2 0.00 0.00 0.00 72 1006.8
20260506002739 28 121 1.6 4.8 0.00 0.00 0.00 72 1006.6
20260506002236 28 276 3.2 3.2 0.00 0.00 0.00 71 1006.8
20260506001731 28 114 3.2 4.8 0.00 0.00 0.00 72 1006.7
20260506001229 28 141 0.0 4.8 0.00 0.00 0.00 72 1006.6
20260506000726 28 113 0.0 3.2 0.00 0.00 0.00 72 1006.6
20260506000226 28 280 1.6 3.2 0.00 0.00 0.00 72 1006.5
20260505235720 28 176 0.0 4.8 0.00 0.00 0.00 71 1006.3
20260505235218 29 197 1.6 4.8 0.00 0.00 0.00 70 1006.3
20260505234715 29 159 1.6 4.8 0.00 0.00 0.00 70 1006.3
20260505234212 29 260 0.0 6.4 0.00 0.00 0.00 70 1006.3
20260505233708 29 288 0.0 6.4 0.00 0.00 0.00 70 1006.1
20260505233207 29 135 9.7 9.7 0.00 0.00 0.00 69 1006.2
20260505232704 30 234 4.8 6.4 0.00 0.00 0.00 68 1006.1
20260505232201 30 189 3.2 4.8 0.00 0.00 0.00 69 1006.2
20260505231658 30 249 1.6 6.4 0.00 0.00 0.00 68 1006.1
20260505231157 30 213 4.8 8.0 0.00 0.00 0.00 67 1006.0
20260505230654 30 137 1.6 8.0 0.00 0.00 0.00 67 1006.0
20260505230151 30 246 6.4 9.7 0.00 0.00 0.00 66 1006.1
20260505225647 30 290 1.6 8.0 0.00 0.00 0.00 67 1006.0
20260505225143 30 154 4.8 6.4 0.00 0.00 0.00 67 1005.9
20260505224639 30 168 6.4 12.9 0.00 0.00 0.00 67 1006.1
20260505224138 30 291 3.2 6.4 0.00 0.00 0.00 65 1006.2
20260505223635 30 221 3.2 6.4 0.00 0.00 0.00 65 1006.5
20260505223131 30 186 4.8 8.0 0.00 0.00 0.00 67 1006.4
20260505222627 30 210 4.8 6.4 0.00 0.00 0.00 68 1006.3
20260505222123 30 286 1.6 4.8 0.00 0.00 0.00 68 1006.7
20260505221620 30 274 1.6 6.4 0.00 0.00 0.00 66 1006.5
20260505221117 30 280 1.6 4.8 0.00 0.00 0.00 67 1006.4
20260505220614 30 263 3.2 4.8 0.00 0.00 0.00 67 1006.3
20260505220112 30 311 4.8 8.0 0.00 0.00 0.00 67 1006.4
20260505215609 30 181 4.8 6.4 0.00 0.00 0.00 65 1006.4
20260505215108 30 278 3.2 8.0 0.00 0.00 0.00 66 1006.4
20260505214605 30 271 4.8 11.3 0.00 0.00 0.00 65 1006.9
20260505214102 31 254 3.2 8.0 0.00 0.00 0.00 64 1006.6
20260505213600 31 278 1.6 6.4 0.00 0.00 0.00 65 1006.8
20260505213056 30 25 1.6 8.0 0.00 0.00 0.00 66 1006.9
20260505212552 30 242 1.6 11.3 0.00 0.00 0.00 67 1007.2
20260505212050 30 277 4.8 6.4 0.00 0.00 0.00 67 1007.2
20260505211546 30 207 0.0 8.0 0.00 0.00 0.00 67 1007.4
20260505211043 30 52 3.2 8.0 0.00 0.00 0.00 68 1007.2
20260505210540 30 287 4.8 6.4 0.00 0.00 0.00 67 1007.2
20260505210037 30 197 1.6 6.4 0.00 0.00 0.00 67 1007.1
20260505205535 29 219 6.4 12.9 0.00 0.00 0.00 68 1007.3
20260505205032 29 293 3.2 6.4 0.00 0.00 0.00 69 1007.5
20260505204530 30 295 4.8 4.8 0.00 0.00 0.00 68 1007.5
20260505204027 30 254 4.8 8.0 0.00 0.00 0.00 66 1007.5
20260505203523 30 290 4.8 6.4 0.00 0.00 0.00 66 1007.7
20260505203020 30 262 4.8 11.3 0.00 0.00 0.00 65 1007.8
20260505202516 30 278 3.2 8.0 0.00 0.00 0.00 66 1007.6
20260505202012 30 332 6.4 12.9 0.00 0.00 0.00 66 1007.6
20260505201510 30 318 3.2 8.0 0.00 0.00 0.00 64 1007.8
20260505201007 30 322 1.6 9.7 0.00 0.00 0.00 66 1007.8
20260505200505 29 342 1.6 9.7 0.00 0.00 0.00 68 1007.9
20260505200001 29 229 3.2 6.4 0.00 0.00 0.00 69 1008.1
20260505195458 28 224 3.2 9.7 0.00 0.00 0.00 70 1008.2
20260505194955 28 285 4.8 6.4 0.00 0.00 0.00 71 1008.2
20260505194453 28 348 4.8 11.3 0.00 0.00 0.00 71 1008.1
20260505193952 29 188 4.8 8.0 0.00 0.00 0.00 69 1008.2
20260505193450 29 159 6.4 6.4 0.00 0.00 0.00 70 1008.3
20260505192947 28 266 3.2 8.0 0.00 0.00 0.00 73 1008.5
20260505192446 28 322 3.2 4.8 0.00 0.00 0.00 72 1008.5
20260505191943 28 294 8.0 8.0 0.00 0.00 0.00 72 1008.6
20260505191442 28 306 3.2 6.4 0.00 0.00 0.00 73 1008.6
20260505190938 27 214 3.2 6.4 0.00 0.00 0.00 73 1008.7
20260505190433 28 250 0.0 9.7 0.00 0.00 0.00 73 1009.0
20260505185929 27 310 3.2 6.4 0.00 0.00 0.00 73 1008.7
20260505185427 27 193 0.0 4.8 0.00 0.00 0.00 73 1008.9
20260505184923 27 344 3.2 6.4 0.00 0.00 0.00 73 1008.8
20260505184420 27 266 4.8 9.7 0.00 0.00 0.00 73 1009.0
20260505183916 28 220 3.2 8.0 0.00 0.00 0.00 73 1008.9
20260505183413 28 196 3.2 9.7 0.00 0.00 0.00 71 1009.1
20260505182910 28 277 8.0 8.0 0.00 0.00 0.00 72 1009.1
20260505182407 28 41 3.2 11.3 0.00 0.00 0.00 72 1008.9
20260505181903 27 293 3.2 9.7 0.00 0.00 0.00 75 1008.9
20260505181401 27 230 3.2 8.0 0.00 0.00 0.00 74 1009.1
20260505180857 27 250 3.2 6.4 0.00 0.00 0.00 75 1009.3
20260505180354 27 210 1.6 6.4 0.00 0.00 0.00 75 1009.4
20260505175850 27 326 3.2 4.8 0.00 0.00 0.00 76 1009.5
20260505175347 27 239 3.2 9.7 0.00 0.00 0.00 76 1009.3
20260505174843 26 320 4.8 9.7 0.00 0.00 0.00 77 1009.2
20260505174341 26 288 1.6 6.4 0.00 0.00 0.00 78 1009.3
20260505173836 26 196 3.2 6.4 0.00 0.00 0.00 79 1009.2
20260505173333 26 343 4.8 8.0 0.00 0.00 0.00 79 1009.4
20260505172830 26 261 3.2 11.3 0.00 0.00 0.00 78 1009.6
20260505172328 26 273 3.2 8.0 0.00 0.00 0.00 79 1009.5
20260505171827 26 136 1.6 6.4 0.00 0.00 0.00 79 1009.7
20260505171325 25 219 4.8 8.0 0.00 0.00 0.00 81 1009.5
20260505170821 25 228 4.8 8.0 0.00 0.00 0.00 82 1009.7
20260505170318 25 229 4.8 9.7 0.00 0.00 0.00 83 1009.7
20260505165814 25 248 4.8 9.7 0.00 0.00 0.00 83 1009.7
20260505165309 25 336 4.8 8.0 0.00 0.00 0.00 84 1009.6
20260505164805 24 231 6.4 8.0 0.00 0.00 0.00 84 1009.6
20260505164303 24 247 3.2 8.0 0.00 0.00 0.00 85 1009.6
20260505163801 23 240 4.8 4.8 0.00 0.00 0.00 86 1009.8
20260505163259 23 325 4.8 4.8 0.00 0.00 0.00 86 1009.7
20260505162756 23 70 1.6 4.8 0.00 0.00 0.00 86 1009.5
20260505162253 23 257 0.0 6.4 0.00 0.00 0.00 87 1009.5
20260505161750 23 302 3.2 6.4 0.00 0.00 0.00 88 1009.4
20260505161247 23 50 1.6 4.8 0.00 0.00 0.00 88 1009.4
20260505160744 23 303 1.6 3.2 0.00 0.00 0.00 88 1009.7
20260505160242 23 359 3.2 6.4 0.00 0.00 0.00 88 1009.7
20260505153221 22 344 0.0 4.8 0.00 0.00 0.00 91 1009.3
20260505152718 22 23 1.6 4.8 0.00 0.00 0.00 91 1009.4
20260505152214 22 317 1.6 8.0 0.00 0.00 0.00 92 1009.5
20260505151709 22 225 3.2 4.8 0.00 0.00 0.00 93 1009.5
20260505151207 21 339 1.6 4.8 0.00 0.00 0.00 94 1009.8
20260505150703 21 82 1.6 6.4 0.00 0.00 0.00 94 1009.5
20260505150200 21 257 3.2 8.0 0.00 0.00 0.00 95 1009.6
20260505140633 21 251 3.2 6.4 0.00 0.00 0.00 95 1009.5
20260505140131 21 288 4.8 6.4 0.00 0.00 0.00 94 1009.3